Truth Or Consequences, NM

9:31 PM MST on January 23, 2018 (GMT -0700)
Truth Or Consequences Municipal

Weather History for KTCS - March, 2012

Change the Weather History Date:

Saturday, March 31, 2012

  Actual Average Record
Temperature  
Mean Temperature 69 °F -  
Max Temperature 84 °F 70 °F 84 °F (2011)
Min Temperature 53 °F 41 °F 30 °F (1998)
Degree Days  
Heating Degree Days 0    
Month to date heating degree days 320  
Since 1 July heating degree days 2998  
Cooling Degree Days 4    
Month to date cooling degree days 7  
Year to date cooling degree days 7  
Growing Degree Days 18 (Base 50)    
Moisture  
Dew Point 17 °F    
Average Humidity 16    
Maximum Humidity 24    
Minimum Humidity 7    
Precipitation  
Precipitation 0.00 in - 0.00 in (2018)
Month to date precipitation 0.20  
Year to date precipitation 0.37  
Sea Level Pressure  
Sea Level Pressure 29.77 in    
Wind  
Wind Speed 9 mph (WSW)    
Max Wind Speed 18 mph    
Max Gust Speed 24 mph    
Visibility 10 miles    
Events      
T = Trace of Precipitation, MM = Missing Value Source: NWS Daily Summary

Daily Weather History Graph

Daily Weather History Graph

Search for Another Location

Airport or City:

Trip Planner

Search our weather history database for the weather conditions in past years. The results will help you decide how hot, cold, wet, or windy it might be!

Date:

Astronomy

Mar. 31, 2012 Rise Set
Actual Time 6:57 AM MDT 7:29 PM MDT
Civil Twilight 6:32 AM MDT 7:54 PM MDT
Nautical Twilight 6:03 AM MDT 8:23 PM MDT
Astronomical Twilight 5:33 AM MDT 8:53 PM MDT
Moon 1:18 PM MDT (3/31) 2:36 AM MDT (3/31)
Length of Visible Light 13h 21m
Length of Day
12h 31m
First Quarter, 59% of the Moon is Illuminated
Mar 31
First Quarter
Apr 6
Full
Apr 13
Last Quarter
Apr 21
New
Apr 29
First Quarter

Hourly Weather History & Observations

Time (MDT) Temp. Dew Point Humidity Pressure Visibility Wind Dir Wind Speed Gust Speed Precip Events Conditions
12:53 AM 63.0 °F 16.0 °F 16% 29.78 in 10.0 mi NW 10.4 mph - N/A   Clear
1:53 AM 64.0 °F 16.0 °F 16% 29.77 in 10.0 mi NW 13.8 mph - N/A   Clear
2:53 AM 61.0 °F 16.0 °F 17% 29.77 in 10.0 mi WNW 13.8 mph - N/A   Clear
3:53 AM 57.9 °F 16.0 °F 19% 29.78 in 10.0 mi NW 5.8 mph - N/A   Clear
4:53 AM 59.0 °F 16.0 °F 19% 29.77 in 10.0 mi NNW 9.2 mph - N/A   Clear
5:53 AM 55.0 °F 16.0 °F 22% 29.80 in 10.0 mi NW 6.9 mph - N/A   Clear
6:53 AM 55.9 °F 16.0 °F 21% 29.82 in 10.0 mi NW 9.2 mph - N/A   Clear
7:53 AM 59.0 °F 17.1 °F 20% 29.84 in 10.0 mi NNW 8.1 mph - N/A   Clear
8:53 AM 64.0 °F 19.0 °F 18% 29.86 in 10.0 mi Calm Calm - N/A   Clear
9:53 AM 64.9 °F 27.0 °F 24% 29.88 in 10.0 mi East 6.9 mph - N/A   Clear
10:53 AM 70.0 °F 21.0 °F 16% 29.86 in 10.0 mi Variable 3.5 mph - N/A   Clear
11:53 AM 75.0 °F 19.0 °F 12% 29.83 in 10.0 mi South 6.9 mph - N/A   Clear
12:53 PM 78.1 °F 15.1 °F 9% 29.79 in 10.0 mi South 9.2 mph - N/A   Clear
1:53 PM 79.0 °F 14.0 °F 9% 29.75 in 10.0 mi Variable 5.8 mph - N/A   Clear
2:53 PM 82.0 °F 15.1 °F 8% 29.72 in 10.0 mi Variable 4.6 mph - N/A   Clear
3:53 PM 82.0 °F 12.9 °F 7% 29.70 in 2.5 mi SSE 13.8 mph 18.4 mph N/A   Haze
4:01 PM 82.4 °F 12.2 °F 7% 29.92 in 10.0 mi South 10.4 mph 18.4 mph N/A   Clear
4:53 PM 82.9 °F 16.0 °F 8% 29.67 in 10.0 mi South 12.7 mph 21.9 mph N/A   Clear
5:53 PM 82.0 °F 18.0 °F 9% 29.67 in 10.0 mi SSE 15.0 mph - N/A   Clear
6:53 PM 80.1 °F 19.0 °F 10% 29.66 in 10.0 mi SE 10.4 mph - N/A   Clear
7:35 PM 78.8 °F 17.6 °F 10% 29.87 in 10.0 mi WSW 16.1 mph - N/A   Clear
7:53 PM 75.9 °F 17.1 °F 11% 29.67 in 10.0 mi WSW 16.1 mph - N/A   Clear
8:53 PM 70.0 °F 16.0 °F 13% 29.70 in 10.0 mi SSW 6.9 mph - N/A   Clear
9:53 PM 70.0 °F 15.1 °F 12% 29.71 in 10.0 mi WSW 12.7 mph - N/A   Clear
10:53 PM 66.9 °F 15.1 °F 14% 29.71 in 10.0 mi SSW 8.1 mph - N/A   Clear
11:53 PM 63.0 °F 15.1 °F 16% 29.71 in 10.0 mi NE 4.6 mph - N/A   Clear